Content
SEND FEEDBACK

Daily
Averages
Monthly
Summary
Hungary

SZEGED, HUNGARY


Home > Europe > Hungary
Elevation: 272 feet     Latitude: 46 15N     Longitude: 020 06E

WEATHER
 
SELECT A DAY
Number of Records: 42,271;   Date Range: 5/9/04 - 7/21/14
 
SHARE

PRINT THIS DATA

[ ← Previous Day ]
WEATHER ALMANAC - FEBRUARY 18, 2013
[ Next Day → ]
[ °C ]   °F
Weather ElementAverageHighLow
Temperature34 °F37.4 °F (1:45 pm)32 °F (2:45 am)
Dewpoint28.4 °F32 °F (4:15 pm)26 °F (7:00 am)
Humidity79.4 %87 % (5:45 pm)65 % (1:00 pm)
Barometer30.14 in30.19 in (1:00 am)30.09 in (4:15 pm)
Wind Speed8.2 mph10.4 mph (11:15 am)
Weather ElementAverage
Visibility6.2 mi
Wind DirectionENE (52.6 °)

Weather ElementTotal
Precipitation---
Heating Degree Days30.3 (Base 65)
Averaged from 43 records on February 18, 2013
WEATHER CONDITIONS BREAKOUT
WIND DIRECTION BREAKOUT
WEATHER BY HOUR - FEBRUARY 18, 2013
[ °C ]   °F
Local TimeTemperatureDewpointHumidityBarometerVisibilityWind DirectionWind SpeedGust SpeedPrecipitationEventsConditions
1:00 AM34.0 °F28.0 °F70 %30.19 in9.0 miNE (40°)8.9 mphPartly Cloudy
1:45 AM33.8 °F26.6 °F75 %30.15 in6.2 miNE (40°)8.1 mphMostly Cloudy
2:45 AM32.0 °F26.6 °F80 %30.15 in6.2 miNNE (30°)8.1 mphMostly Cloudy
3:45 AM32.0 °F26.6 °F80 %30.15 in6.2 miNNE (30°)5.8 mphMostly Cloudy
4:45 AM32.0 °F26.6 °F80 %30.15 in6.2 miNE (40°)6.9 mphMostly Cloudy
5:15 AM32.0 °F26.6 °F80 %30.15 in6.2 miNNE (30°)8.1 mphMostly Cloudy
5:45 AM32.0 °F26.6 °F80 %30.15 in6.2 miNNE (30°)6.9 mphOvercast
6:15 AM32.0 °F26.6 °F80 %30.15 in6.2 miNNE (30°)8.1 mphOvercast
6:45 AM32.0 °F26.6 °F80 %30.15 in6.2 miNNE (20°)8.1 mphOvercast
7:00 AM32.0 °F26.0 °F72 %30.17 in7.0 miNNE (20°)8.9 mphPartly Cloudy
7:15 AM32.0 °F26.6 °F80 %30.15 in6.2 miNNE (20°)9.2 mphOvercast
7:45 AM32.0 °F26.6 °F80 %30.15 in6.2 miNNE (30°)9.2 mphOvercast
8:15 AM32.0 °F26.6 °F80 %30.15 in6.2 miNNE (20°)9.2 mphOvercast
8:45 AM32.0 °F26.6 °F80 %30.15 in6.2 miNNE (30°)9.2 mphOvercast
9:15 AM32.0 °F26.6 °F80 %30.15 in6.2 miNNE (30°)6.9 mphOvercast
9:45 AM32.0 °F26.6 °F80 %30.15 in6.2 miNE (40°)9.2 mphOvercast
10:15 AM33.8 °F26.6 °F75 %30.15 in6.2 miNNE (30°)9.2 mphOvercast
10:45 AM33.8 °F26.6 °F75 %30.15 in6.2 miNE (40°)9.2 mphOvercast
11:15 AM35.6 °F26.6 °F70 %30.15 in6.2 miNE (40°)10.4 mphOvercast
11:45 AM35.6 °F28.4 °F75 %30.15 inNE (40°)10.4 mphClear
12:15 PM35.6 °F28.4 °F75 %30.15 inNE (40°)10.4 mphClear
12:45 PM35.6 °F28.4 °F75 %30.15 inNE (40°)9.2 mphClear
1:00 PM36.0 °F29.0 °F65 %30.15 in12.0 miNE (40°)8.9 mphPartly Cloudy
1:15 PM35.6 °F30.2 °F81 %30.12 in6.2 miNNE (30°)10.4 mphOvercast
1:45 PM37.4 °F30.2 °F75 %30.12 inNNE (30°)10.4 mphClear
2:15 PM37.4 °F30.2 °F75 %30.12 inNE (50°)10.4 mphClear
2:45 PM37.4 °F30.2 °F75 %30.12 inNE (40°)9.2 mphClear
3:15 PM37.4 °F30.2 °F75 %30.12 inNNE (30°)9.2 mphClear
3:45 PM37.4 °F30.2 °F75 %30.12 inNNE (20°)10.4 mphClear
4:15 PM37.4 °F32.0 °F81 %30.09 inNE (40°)10.4 mphClear
4:45 PM37.4 °F30.2 °F75 %30.12 inNNE (20°)9.2 mphClear
5:15 PM35.6 °F30.2 °F81 %30.12 inNNE (20°)8.1 mphClear
5:45 PM33.8 °F30.2 °F87 %30.12 inNNE (20°)6.9 mphClear
6:15 PM33.8 °F30.2 °F87 %30.12 inNorth (10°)5.8 mphClear
6:45 PM33.8 °F30.2 °F87 %30.12 in5.0 miNorth (360°)4.6 mphMostly Cloudy
7:00 PM33.0 °F30.0 °F83 %30.14 in5.0 miNorth4.5 mphPartly Cloudy
7:15 PM33.8 °F30.2 °F87 %30.12 in5.0 miNorth (350°)6.9 mphMostly Cloudy
7:45 PM33.8 °F30.2 °F87 %30.12 in5.0 miNorth (360°)6.9 mphMostly Cloudy
8:15 PM33.8 °F30.2 °F87 %30.12 in5.0 miNorth (10°)8.1 mphMostly Cloudy
8:45 PM33.8 °F30.2 °F87 %30.12 in5.0 miNNE (20°)9.2 mphMostly Cloudy
9:45 PM32.0 °F28.4 °F87 %30.12 in5.0 miNE (40°)5.8 mphMostly Cloudy
10:45 PM32.0 °F28.4 °F87 %30.12 in5.0 miNorth (10°)4.6 mphMostly Cloudy
11:45 PM32.0 °F28.4 °F87 %30.12 in5.0 miNE (50°)3.5 mphMostly Cloudy
Hourly data recorded from LHUD, located miles away from Szeged, Hungary







STORIES FROM OUR PARTNERS